E1521 Weather Reports


Display with metric or nautical units.
time (UTC)temp
F
wind
direction
speed
MPH
gust
MPH
rain 1hr
in
rain 24hr
in
rain mn
in
humidity
%
barometer
mb
20260831174515 74 133 2.0 5.0 0.00 0.00 0.00 89 1018.2
20260831173515 75 143 1.0 3.0 0.00 0.00 0.00 91 1018.1
20260831172515 75 128 0.0 1.0 0.00 0.00 0.00 90 1017.9
20260831171515 75 64 1.0 5.0 0.00 0.00 0.00 89 1017.5
20260831170515 75 61 1.0 4.0 0.00 0.00 0.00 90 1017.5
20260831165515 74 59 0.0 3.0 0.00 0.00 0.00 90 1017.5
20260831164515 74 51 0.0 3.0 0.00 0.00 0.00 90 1017.4
20260831163515 74 336 1.0 5.0 0.00 0.00 0.00 91 1017.3
20260831162516 74 34 1.0 5.0 0.00 0.00 0.00 91 1017.0
20260831161515 74 16 1.0 4.0 0.00 0.00 0.00 92 1016.9
20260831160535 73 44 2.0 5.0 0.00 0.00 0.00 93 1016.8
20260831155515 73 39 0.0 1.0 0.00 0.00 0.00 93 1016.8
20260831154535 73 0.0 1.0 0.00 0.00 0.00 93 1016.7
20260831153515 73 0.0 0.0 0.00 0.00 0.00 92 1016.5
20260831152535 73 56 1.0 6.0 0.00 0.00 0.00 91 1016.2
20260831151515 73 113 1.0 4.0 0.00 0.00 0.00 90 1016.4
20260831150515 73 165 0.0 2.0 0.00 0.00 0.00 91 1017.0
20260831145515 74 268 1.0 3.0 0.00 0.00 0.00 89 1017.0
20260831144555 74 146 0.0 4.0 0.00 0.00 0.00 88 1016.7
20260831143515 74 127 3.0 9.0 0.00 0.00 0.00 88 1016.3
20260831142516 74 111 5.0 12.0 0.00 0.00 0.00 88 1016.0
20260831141537 74 114 5.0 13.0 0.00 0.00 0.00 88 1015.9
20260831140516 73 115 4.0 11.0 0.00 0.00 0.00 89 1015.8
20260831135517 73 128 6.0 15.0 0.00 0.00 0.00 89 1015.6
20260831134516 73 108 8.0 17.0 0.00 0.00 0.00 88 1015.0
20260831133517 73 98 7.0 15.0 0.00 0.00 0.00 89 1014.9
20260831132516 74 99 8.0 17.0 0.00 0.00 0.00 89 1014.8
20260831131517 74 100 5.0 10.0 0.00 0.00 0.00 89 1014.8
20260831130517 74 128 4.0 10.0 0.00 0.00 0.00 86 1014.8
20260831125515 75 133 4.0 10.0 0.00 0.00 0.00 84 1014.7
20260831124517 76 150 4.0 9.0 0.00 0.00 0.00 84 1014.4
20260831123516 76 149 5.0 9.0 0.00 0.00 0.00 83 1014.3
20260831122536 77 150 4.0 9.0 0.00 0.00 0.00 82 1014.1
20260831121516 77 155 2.0 8.0 0.00 0.00 0.00 81 1013.9
20260831120517 77 161 2.0 7.0 0.00 0.00 0.00 80 1013.8
20260831115517 77 146 1.0 3.0 0.00 0.00 0.00 80 1013.3
20260831114517 77 141 0.0 2.0 0.00 0.00 0.00 82 1013.0
20260831113517 76 163 0.0 3.0 0.00 0.00 0.00 83 1012.7
20260831112516 76 0.0 3.0 0.00 0.00 0.00 85 1012.5
20260831111517 76 161 0.0 3.0 0.00 0.00 0.00 86 1012.5
20260831110516 76 148 1.0 5.0 0.00 0.00 0.00 87 1012.5
20260831104536 76 147 1.0 3.0 0.00 0.00 0.00 87 1012.7
20260831103537 75 138 0.0 3.0 0.00 0.00 0.00 88 1012.6
20260831102517 75 133 1.0 4.0 0.00 0.00 0.00 87 1012.1
20260831101516 75 134 0.0 1.0 0.00 0.00 0.00 89 1012.0
20260831100517 75 162 1.0 6.0 0.00 0.00 0.00 89 1012.1
20260831095516 75 135 0.0 1.0 0.00 0.00 0.00 89 1012.1
20260831094516 76 127 0.0 1.0 0.00 0.00 0.00 87 1012.1
20260831093516 76 286 0.0 2.0 0.00 0.00 0.00 85 1012.0
20260831092516 75 269 1.0 2.0 0.00 0.00 0.00 86 1012.3
20260831091536 75 273 0.0 2.0 0.00 0.00 0.00 86 1012.7
20260831090536 75 0.0 2.0 0.00 0.00 0.00 85 1012.5
20260831085516 75 322 1.0 4.0 0.00 0.00 0.00 82 1012.5
20260831084516 76 338 1.0 3.0 0.00 0.00 0.00 80 1012.5
20260831083516 76 133 0.0 2.0 0.00 0.00 0.00 85 1013.0
20260831082516 77 319 1.0 6.0 0.00 0.00 0.00 80 1013.1
20260831081517 78 273 1.0 5.0 0.00 0.00 0.00 77 1013.7
20260831080517 79 5 2.0 13.0 0.00 0.00 0.00 76 1012.6
20260831075516 83 345 6.0 16.0 0.00 0.00 0.00 65 1012.8
20260831074516 85 315 5.0 16.0 0.00 0.00 0.00 57 1013.5
20260831073517 85 353 5.0 16.0 0.00 0.00 0.00 57 1012.8
20260831072537 86 14 6.0 14.0 0.00 0.00 0.00 55 1012.4
20260831071517 86 347 4.0 10.0 0.00 0.00 0.00 51 1012.6
20260831070516 86 338 3.0 9.0 0.00 0.00 0.00 52 1012.8
20260831065657 86 12 4.0 12.0 0.00 0.00 0.00 52 1012.4
20260831064517 87 0 2.0 8.0 0.00 0.00 0.00 50 1012.5
20260831063516 87 347 2.0 10.0 0.00 0.00 0.00 50 1012.1
20260831062516 87 52 1.0 6.0 0.00 0.00 0.00 51 1012.0
20260831061517 88 23 2.0 7.0 0.00 0.00 0.00 48 1011.8
20260831060516 90 2 3.0 11.0 0.00 0.00 0.00 43 1011.6
20260831055516 91 289 5.0 10.0 0.00 0.00 0.00 40 1011.1
20260831054517 91 287 4.0 9.0 0.00 0.00 0.00 39 1010.9
20260831053516 90 276 4.0 10.0 0.00 0.00 0.00 42 1011.0
20260831052516 89 276 4.0 13.0 0.00 0.00 0.00 44 1011.2
20260831051516 89 275 6.0 14.0 0.00 0.00 0.00 42 1011.2
20260831050517 89 265 5.0 14.0 0.00 0.00 0.00 45 1011.3
20260831045516 88 274 8.0 17.0 0.00 0.00 0.00 49 1011.3
20260831044516 88 274 8.0 20.0 0.00 0.00 0.00 49 1011.1
20260831043516 88 264 9.0 23.0 0.00 0.00 0.00 49 1011.2
20260831042516 90 266 6.0 19.0 0.00 0.00 0.00 49 1011.3
20260831041515 91 258 6.0 20.0 0.00 0.00 0.00 46 1011.0
20260831040516 92 241 7.0 16.0 0.00 0.00 0.00 43 1011.0
20260831035516 92 209 7.0 17.0 0.00 0.00 0.00 43 1011.0
20260831034515 94 240 7.0 19.0 0.00 0.00 0.00 40 1010.8
20260831033536 97 211 6.0 13.0 0.00 0.00 0.00 36 1010.6
20260831032537 98 151 0.0 2.0 0.00 0.00 0.00 36 1010.3
20260831031516 98 147 0.0 1.0 0.00 0.00 0.00 36 1009.9
20260831030516 98 132 0.0 3.0 0.00 0.00 0.00 35 1009.7
20260831025516 98 136 1.0 3.0 0.00 0.00 0.00 35 1009.5
20260831024515 98 129 0.0 1.0 0.00 0.00 0.00 34 1009.3
20260831023536 99 131 0.0 3.0 0.00 0.00 0.00 34 1009.3
20260831022515 100 0.0 0.0 0.00 0.00 0.00 32 1009.2
20260831021518 100 290 0.0 2.0 0.00 0.00 0.00 31 1008.7
20260831020515 100 288 0.0 2.0 0.00 0.00 0.00 31 1008.6
20260831015516 101 322 1.0 3.0 0.00 0.00 0.00 31 1008.5
20260831014515 101 321 0.0 4.0 0.00 0.00 0.00 30 1008.5
20260831013515 102 302 1.0 4.0 0.00 0.00 0.00 30 1008.3
20260831012517 102 322 1.0 4.0 0.00 0.00 0.00 29 1008.3
20260831011515 102 326 2.0 6.0 0.00 0.00 0.00 29 1008.2
20260831010537 103 298 2.0 5.0 0.00 0.00 0.00 29 1008.3
20260831005516 103 327 2.0 8.0 0.00 0.00 0.00 28 1008.4
20260831004515 104 273 1.0 5.0 0.00 0.00 0.00 27 1008.5
20260831003516 104 181 1.0 4.0 0.00 0.00 0.00 28 1008.5
20260831002515 105 280 2.0 8.0 0.00 0.00 0.00 27 1008.6
20260831001536 105 48 1.0 3.0 0.00 0.00 0.00 27 1008.6
20260831000535 105 195 0.0 2.0 0.00 0.00 0.00 28 1008.7
20260830235536 105 261 1.0 5.0 0.00 0.00 0.00 28 1008.7
20260830234516 105 163 1.0 5.0 0.00 0.00 0.00 27 1008.8
20260830233516 105 266 2.0 7.0 0.00 0.00 0.00 28 1008.9
20260830232517 103 124 1.0 4.0 0.00 0.00 0.00 30 1009.0
20260830231516 104 135 2.0 8.0 0.00 0.00 0.00 29 1009.1
20260830230535 104 120 2.0 5.0 0.00 0.00 0.00 30 1009.3
20260830225516 103 133 1.0 5.0 0.00 0.00 0.00 30 1009.5
20260830224516 104 284 0.0 3.0 0.00 0.00 0.00 30 1009.6
20260830223516 104 26 1.0 4.0 0.00 0.00 0.00 30 1009.9
20260830222515 104 297 0.0 4.0 0.00 0.00 0.00 29 1010.0
20260830221516 103 112 0.0 4.0 0.00 0.00 0.00 30 1010.2
20260830220515 102 57 1.0 7.0 0.00 0.00 0.00 31 1010.4
20260830215515 102 330 3.0 8.0 0.00 0.00 0.00 32 1010.6
20260830214516 103 8 0.0 3.0 0.00 0.00 0.00 31 1010.8
20260830213536 102 67 0.0 4.0 0.00 0.00 0.00 32 1011.0
20260830212516 101 332 2.0 7.0 0.00 0.00 0.00 33 1011.2
20260830211516 102 248 1.0 5.0 0.00 0.00 0.00 32 1011.4
20260830210515 102 122 2.0 7.0 0.00 0.00 0.00 32 1011.7
20260830205516 103 138 2.0 7.0 0.00 0.00 0.00 32 1011.9
20260830204515 102 106 2.0 5.0 0.00 0.00 0.00 33 1012.0
20260830203516 102 130 3.0 8.0 0.00 0.00 0.00 33 1012.2
20260830202516 101 130 2.0 6.0 0.00 0.00 0.00 33 1012.3
20260830201515 101 51 2.0 11.0 0.00 0.00 0.00 34 1012.4
20260830200536 101 63 2.0 7.0 0.00 0.00 0.00 34 1012.6
20260830195515 101 113 2.0 6.0 0.00 0.00 0.00 34 1012.7
20260830194515 101 147 3.0 6.0 0.00 0.00 0.00 34 1012.9
20260830193516 101 37 0.0 3.0 0.00 0.00 0.00 34 1013.0
20260830192515 100 133 0.0 2.0 0.00 0.00 0.00 35 1013.1
20260830191616 99 273 1.0 5.0 0.00 0.00 0.00 37 1013.4
20260830190535 100 285 1.0 6.0 0.00 0.00 0.00 36 1013.6
20260830185556 98 102 1.0 7.0 0.00 0.00 0.00 38 1013.7
20260830184515 98 148 2.0 8.0 0.00 0.00 0.00 37 1013.9
20260830183515 98 281 1.0 5.0 0.00 0.00 0.00 38 1014.1
20260830182536 98 160 2.0 7.0 0.00 0.00 0.00 38 1014.2
20260830181515 97 117 4.0 9.0 0.00 0.00 0.00 40 1014.3
20260830180555 95 138 2.0 9.0 0.00 0.00 0.00 41 1014.5
20260830175515 95 126 3.0 7.0 0.00 0.00 0.00 42 1014.6